User: anonymous   Login
Location: Unspecified
(0.0000°N, 0.0000°E)
Time: 19:25:04
(UTC+00:00)
Language:

STARLINK-2220 - Orbit

View from above orbital plane
View from above orbital plane
View from above satellite
View from above satellite

Ground track
Ground track

The orbit is defined by the following mean orbital elements,

1 48570U          26145.66668980 +.00000000 +00000-0 +17801-1 0 00002
2 48570  53.1255 149.5691 0001630  90.2424 231.3972 15.53913972    05
Epoch (UTC): 25 May 2026 16:00:01
Eccentricity: 0.0001630
inclination: 53.1255°
perigee height: 404 km
apogee height: 406 km
right ascension of ascending node: 149.5691°
argument of perigee: 90.2424°
revolutions per day: 15.53913972
mean anomaly at epoch: 231.3972°

The dashed part of the orbit path shows where the satellite is in the earth's shadow,  

DLR